Weather History for Garrison, ND

Change the Weather History Date:

Friday, August 2, 2013

  Actual Average Record
Temperature  
Mean Temperature 62 °F -  
Max Temperature 74 °F 80 °F 91 °F (2001)
Min Temperature 50 °F 54 °F 39 °F (2002)
Degree Days  
Heating Degree Days 4    
Growing Degree Days 12 (Base 50)    
Moisture  
Dew Point 52 °F    
Average Humidity 67    
Maximum Humidity 93    
Minimum Humidity 41    
Precipitation  
Precipitation 0.00 in - - ()
Month to date precipitation 0.00  
Year to date precipitation 18.85  
Sea Level Pressure  
Sea Level Pressure 30.04 in    
Wind  
Wind Speed 4 mph (NE)    
Max Wind Speed 9 mph    
Max Gust Speed 13 mph    
Averages and records for this station are not official NWS values.
T = Trace of Precipitation, MM = Missing Value Source: NWS Daily Summary

Daily Weather History Graph

Daily Weather History Graph

Search for Another Location

Airport:

Trip Planner

Search our weather history database for the weather conditions in past years. The results will help you decide how hot, cold, wet, or windy it might be!

Date:

Astronomy

Aug. 02, 2013 Rise Set
Actual Time 6:24 AM CDT 9:18 PM CDT
Civil Twilight 5:48 AM CDT 9:54 PM CDT
Nautical Twilight 5:02 AM CDT 10:39 PM CDT
Astronomical Twilight 4:07 AM CDT 11:34 PM CDT
Moon 2:44 AM CDT (8/2) 6:20 PM CDT (8/2)
Length of Visible Light 16h 05m
Length of Day
14h 53m
Waning Crescent, 15% of the Moon is Illuminated
Aug 2
Waning Crescent
Aug 6
New
Aug 14
First Quarter
Aug 20
Full
Aug 28
Last Quarter

Hourly Weather History & Observations

Time (CDT) Temp. Dew Point Humidity Pressure Visibility Wind Dir Wind Speed Gust Speed Precip Events Conditions
12:52 AM 55.0 °F 51.1 °F 86% 29.99 in - NNE 6.9 mph - N/A   Unknown
1:52 AM 54.0 °F 51.1 °F 90% 30.00 in - NNE 3.5 mph - N/A   Unknown
2:52 AM 54.0 °F 51.1 °F 90% 30.00 in - North 5.8 mph - N/A   Unknown
3:52 AM 53.1 °F 51.1 °F 93% 29.99 in - NNE 3.5 mph - N/A   Unknown
4:52 AM 53.1 °F 50.0 °F 89% 29.98 in - NNE 3.5 mph - N/A   Unknown
5:52 AM 50.0 °F 48.0 °F 93% 30.01 in - NW 3.5 mph - N/A   Unknown
6:52 AM 50.0 °F 48.9 °F 96% 30.01 in - North 6.9 mph - N/A   Unknown
7:52 AM 55.0 °F 53.1 °F 93% 30.02 in - NNW 3.5 mph - N/A   Unknown
8:52 AM 61.0 °F 55.9 °F 83% 30.04 in - Calm Calm - N/A   Unknown
9:52 AM 64.0 °F 57.9 °F 80% 30.04 in - Calm Calm - N/A   Unknown
10:52 AM 68.0 °F 57.0 °F 68% 30.04 in - ESE 3.5 mph - N/A   Unknown
11:52 AM 68.0 °F 55.9 °F 65% 30.04 in - SSE 6.9 mph - N/A   Unknown
12:52 PM 70.0 °F 52.0 °F 53% 30.05 in - East 4.6 mph - N/A   Unknown
1:52 PM 71.1 °F 51.1 °F 49% 30.05 in - Variable 3.5 mph - N/A   Unknown
2:52 PM 70.0 °F 51.1 °F 51% 30.06 in - NNE 5.8 mph - N/A   Unknown
3:52 PM 73.9 °F 53.1 °F 48% 30.06 in - ESE 5.8 mph - N/A   Unknown
4:52 PM 73.9 °F 50.0 °F 43% 30.05 in - ENE 6.9 mph - N/A   Unknown
5:52 PM 73.0 °F 48.9 °F 42% 30.05 in - Calm Calm - N/A   Unknown
6:52 PM 72.0 °F 51.1 °F 48% 30.06 in - NE 5.8 mph - N/A   Unknown
7:52 PM 69.1 °F 50.0 °F 51% 30.06 in - ENE 5.8 mph - N/A   Unknown
8:52 PM 66.9 °F 52.0 °F 59% 30.07 in - ENE 5.8 mph - N/A   Unknown
9:52 PM 64.9 °F 52.0 °F 63% 30.09 in - ENE 3.5 mph - N/A   Unknown
10:52 PM 63.0 °F 54.0 °F 72% 30.11 in - NNE 5.8 mph - N/A   Unknown
11:52 PM 61.0 °F 55.9 °F 83% 30.12 in - NNE 6.9 mph - N/A   Unknown